STARLINK-1167, 45071

Orbit data source: Space-Track

STARLINK-1167, 45071 is a payload satellite owned by SpaceX/Seattle (US) in LEO that was launched on Wed, 29 Jan 2020 UTC via an FALCON 9 launch vehicle from the Air Force Eastern Test Range (AFETR). Payloads include a variety of satellites, spacecraft, and rockets equipped with specific instruments for various scientific and technological missions. These include communications satellites like Starlink; space stations such as the ISS; scientific satellites like the Hubble; Earth observation satellites from companies like Planet Labs, Umbra, and HawkEye 360; GPS; miniature CubeSats for education and research; and military/defense satellites.

Loading next visibility...
STARLINK-1167 details
Identifier
45071, 2020-006AD
Orbit
LEO
Last TLE update9 hours ago
Origin
Flag of USSpaceX/Seattle (US)
ManufacturerSpaceX/Seattle
MissionOperational Commercial Communications
Bus & MotorSTARLINK, Unknown motor
Mass260 kg wet, ~248 kg dry
Launch date (UTC)
2020-01-29 (5 years ago)
Launch vehicle
FALCON 9
Launch site
Air Force Eastern Test Range (AFETR)
Object type
Payload
Rocket body
Debris
Shape & HBRBox + 1 Pan, 8.86 m
Radar Cross Section13.562 m², Large (>1 m²)

Expand to show TLE details & history

TLE from 9 hours ago
0 STARLINK-1167
1 45071U 20006AD  25024.16394442  .00028065  00000-0  18959-2 0  9996
2 45071  53.0542 305.0518 0001291  88.1617 271.9520 15.06392519275353
Epoch: 2025-01-24T03:56Z
Definitive object data (Epoch: 2025-01-24T03:56:04.797Z)
Latitude-0.00003°
Longitude122.30074°
Altitude548.083 km
Speed7.589 km/s
True Right ascension20h 20m 12s
True Declination0° 00' 00"
Sunlit
Object was in daylight at TLE epoch
Visualization TLE readout
Latitude-14.5437°
Longitude-48.16393°
Altitude551.346 km
Speed7.586 km/s
Apparent Right ascension06h 15m 27s
Apparent Declination-38° 31' 44"
Sunlit
Object is in full shadow
Visualization observer readout
Local Sidereal Time14:02:13
Azimuth250.152° W
Elevation-42.006°
Doppler factor1
Orbital elements
Apogee altitude548.399 km
Perigee altitude546.611 km
Semi-major axis6,925.642 km
Eccentricity0.0001291
Inclination53.0542°
RAAN305.0518°
Arg. of periapsis88.1617°
True anomaly271.93721°
Mean anomaly271.952°
Eccentric anomaly271.94461°
Mean motion3.76576 °/min
BSTAR0.0018959
Orbital period95.6 mins
Loading maneuver chart data...
Loading historical data...
Loading historical data...
Loading historical data...
Loading historical data...
Loading historical data...
Loading historical data...
Loading historical data...

STARLINK-1167 Visibility forecast

Observer location: undefined°, undefined

Span
Click to sort rows by Start time (UTC) header in descending order
Start Az.
Max El. time (UTC)
Max El. Az.
Max El.
End time (UTC)
End Az.
4 mins2025-01-24 20:00:19.041Z164.053° S2025-01-24 20:02:19.041Z133.374° SE15.954°2025-01-24 20:04:19.041Z98.915° ESE
6 mins2025-01-24 21:39:19.041Z244.173° WSW2025-01-24 21:41:19.041Z280.815° WNW40.852°2025-01-24 21:45:19.041Z44.581° NE
4 mins2025-01-24 23:20:19.041Z312.733° NW2025-01-24 23:22:19.041Z349.16° N17.266°2025-01-24 23:24:19.041Z21.168° NNE
5 mins2025-01-25 02:41:19.041Z341.511° N2025-01-25 02:43:19.041Z20.416° NNE22.529°2025-01-25 02:46:19.041Z75.671° E
7 mins2025-01-25 04:20:19.041Z302.673° NW2025-01-25 04:23:19.041Z222.528° SW42.667°2025-01-25 04:27:19.041Z140.745° SSE
|